Location: Goincourt
(49.4261°N, 2.0362°E)
Time: 08:57:47
(UTC+00:00)

Daily predictions for brighter satellites

Satellite Brightness Start Highest point End
(mag) Time Altitude Azimuth Time Altitude Azimuth Time Altitude Azimuth
BREEZE-M (TANK) 3.7 20:05:25 10° WSW 20:09:02 73° SSE 20:22:21 10° ENE
BREEZE-M DEB (TANK) 3.8 20:18:00 10° WSW 20:21:27 85° S 20:33:04 10° E
Timation 2 Rocket 4.3 20:17:11 10° NNW 20:23:46 80° WSW 20:30:35 10° SSE
SPOT 1/Viking Rocket 3.6 20:19:30 10° SSE 20:24:41 86° ENE 20:29:52 10° NNW
Cosmos 2297 Rocket 4.4 20:20:58 10° NW 20:25:12 22° W 20:29:26 10° SSW
Cosmos 1536 3.7 20:26:00 10° NNW 20:29:56 52° W 20:33:51 10° S
SL-4 R/B 4.3 20:28:02 10° W 20:31:04 18° SW 20:34:00 10° S
Okean 1 3.5 20:28:12 10° S 20:32:06 52° E 20:36:02 10° NNE
Ariane Rocket 3.1 20:27:03 10° SSE 20:32:08 87° WSW 20:37:16 10° NNW
PSLV R/B 4.1 20:28:05 10° NNE 20:32:08 78° WNW 20:36:10 10° SSW
Meteor 1-19 Rocket 4.3 20:27:51 10° S 20:33:06 55° E 20:38:24 10° NNE
CZ-4C R/B 4.3 20:30:01 10° NW 20:35:38 30° NNE 20:42:15 10° E
Meteor 2-9 Rocket 4.3 20:32:17 10° N 20:38:05 79° ENE 20:43:41 10° SSE
ISS -3.3 20:35:05 10° WNW 20:38:20 48° SSW 20:41:29 10° SE
Cosmos 44 Rocket 3.3 20:34:23 10° NW 20:39:07 80° NE 20:43:48 10° SE
Cosmos 1184 Rocket 3.5 20:39:37 10° SSW 20:42:33 51° WNW 20:45:32 10° N
RESURS DK-1 2.4 20:39:42 10° SSW 20:43:45 60° ESE 20:47:50 10° NE
ARGOS Delta rocket 4.3 20:38:17 10° N 20:43:49 80° WNW 20:49:11 10° SSW
Cosmos 921 Rocket 3.8 20:39:33 10° NNW 20:43:57 52° WSW 20:48:17 10° S
Cosmos 2034 Rocket 4.1 20:39:14 10° S 20:45:31 79° E 20:51:55 10° NNE
Cosmos 1340 3.8 20:44:19 10° SSW 20:47:55 45° WNW 20:51:33 10° N
SL-16 R/B 3.0 20:44:13 10° SSE 20:49:05 30° ESE 20:53:58 10° NE
ATLAS CENTAUR R/B 3.3 20:52:04 10° NNW 20:56:20 29° NNE 21:00:29 10° E
Cosmos 1975 2.9 20:56:31 10° N 21:00:35 65° E 21:04:09 13° SSE
Resurs 01 Rocket 3.1 20:57:56 10° SSW 21:01:57 34° W 21:06:00 10° NNW
CZ-4B R/B 3.1 21:00:30 10° N 21:03:25 32° WNW 21:06:15 10° SW
CARTOSAT-1 3.9 20:59:10 10° S 21:03:27 66° WSW 21:07:46 10° NNW
ATLAS 2AS CENTAUR R/B 3.0 20:55:47 10° SSW 21:03:35 80° SE 21:11:08 10° NE
Cosmos 1869 Rocket 3.9 21:00:03 10° NNW 21:04:31 68° W 21:08:57 10° S
Spot 2 Rocket 3.5 21:00:51 11° SSE 21:05:39 78° ENE 21:10:43 10° NNW
Cosmos 1777 Rocket 4.0 21:00:56 10° SSW 21:06:08 81° ESE 21:11:26 10° NNE
Cosmos 2278 3.7 21:05:04 10° SSW 21:10:44 90° ESE 21:16:29 10° NNE
Cosmos 2360 Rocket 3.5 21:08:17 14° SE 21:11:29 22° E 21:15:41 10° NE
Cosmos 2263 Rocket 2.7 21:06:02 10° NW 21:11:29 55° WSW 21:16:41 11° S
USA 267 4.3 21:06:37 10° ENE 21:12:48 46° N 21:18:58 10° WNW
SL-24 R/B - RUBIN 2 3.9 21:11:41 10° NW 21:16:00 59° SW 21:19:34 16° SSE
H-2A R/B 4.4 21:13:13 10° N 21:16:33 24° WNW 21:19:53 10° WSW
Cosmos 2228 Rocket 3.4 21:13:37 10° SSW 21:18:11 74° WNW 21:22:43 10° N
Cosmos 158 Rocket 4.3 21:13:51 10° NNW 21:18:58 65° WSW 21:23:33 13° S
SPOT 3 Rocket 4.1 21:15:15 10° S 21:20:17 54° W 21:25:21 10° NNW
Cosmos 1441 Rocket 4.0 21:19:20 18° SE 21:21:24 31° E 21:24:43 10° NNE
Iridium 2 4.5 21:18:10 10° N 21:21:41 36° E 21:23:53 19° SE
OE (NEXTSAT) 4.5 21:18:54 10° WSW 21:22:05 46° S 21:24:24 17° ESE
Meteor 1-18 Rocket 4.2 21:16:27 10° S 21:22:09 89° WNW 21:27:48 10° NNE
ATLAS 3B R/B 2.9 21:15:08 10° NW 21:22:30 86° SW 21:28:52 16° SE
NOSS 2-1 (E) 2.9 21:20:54 10° SSW 21:24:02 49° SE 21:27:12 10° NE
Cosmos 1378 3.2 21:21:04 10° SSW 21:24:42 75° W 21:28:23 10° N
Helios 1A Rocket 3.4 21:23:00 12° S 21:26:33 55° WSW 21:30:30 10° NNW
Cosmos 1707 Rocket 3.5 21:26:57 11° S 21:31:15 85° E 21:35:40 10° N
Cosmos 1346 Rocket 2.8 21:31:56 12° S 21:35:38 89° ESE 21:39:41 10° NNE
ERS-1 Rocket 3.2 21:31:59 15° S 21:36:14 69° WSW 21:41:17 10° NNW
Cosmos 1092 Rocket 4.4 21:30:33 10° NNW 21:36:38 61° W 21:42:35 10° S
Terra 1.9 21:35:23 17° S 21:39:02 81° WSW 21:43:50 10° NNW
Cosmos 1356 4.0 21:39:30 26° SE 21:40:47 37° E 21:43:52 10° NNE
Cosmos 1980 Rocket 3.7 21:37:12 10° WSW 21:42:28 39° NW 21:47:48 10° NNE
ARIANE 5 R/B 2.6 21:39:35 20° SSE 21:42:44 88° WSW 21:47:17 10° NNW
BREEZE-M DEB (TANK) 1.6 21:41:25 10° W 21:43:36 87° N 21:45:32 16° E
Cosmos 2292 Rocket 4.3 21:41:58 10° NNW 21:44:36 28° W 21:46:51 12° SSW
Cosmos 1634 Rocket 4.1 21:40:19 10° SSW 21:46:31 77° W 21:52:44 10° N
SPOT 5 3.7 21:42:55 13° S 21:47:28 50° W 21:52:25 10° NNW
Cosmos 1844 Rocket 2.7 21:44:44 10° NNW 21:50:22 74° ENE 21:54:07 21° SE
Meteor 1-4 Rocket 2.4 21:48:03 10° N 21:51:34 80° ENE 21:53:16 28° SSE
Cosmos 2322 Rocket 2.2 21:46:24 10° SSW 21:51:56 65° ESE 21:57:31 10° NNE
USA 81 4.2 21:47:17 11° SSW 21:52:18 72° W 21:57:36 10° N
Geosat 4.1 21:53:02 21° SE 21:56:24 71° ENE 22:01:26 10° NNW
Cosmos 1733 Rocket 3.6 21:52:45 10° NNW 21:57:08 56° W 22:00:15 18° SSW
Cosmos 1805 3.2 21:57:44 10° N 22:01:39 90° ESE 22:03:37 28° S
SJ 16-02 3.7 21:58:09 10° WSW 22:01:45 24° NW 22:05:22 10° N
Cosmos 2333 Rocket 3.1 22:00:15 22° SE 22:02:38 31° ESE 22:07:32 10° NE
NOSS 2-1 (C) 3.5 22:01:35 10° WSW 22:04:46 54° NW 22:08:01 10° NE
Cosmos 1733 3.1 22:01:04 10° NNW 22:04:51 82° W 22:06:39 29° S
Meteor 1-12 Rocket 4.4 21:59:14 10° N 22:05:12 74° ENE 22:08:52 24° SSE
Meteor 2-4 Rocket 4.5 22:00:35 10° SSW 22:06:10 52° WNW 22:11:39 10° N
Cosmos 923 Rocket 4.1 22:03:12 10° NNW 22:08:35 77° WSW 22:11:46 25° SSE
Cosmos 1937 Rocket 4.0 22:06:02 25° SSE 22:08:38 42° ESE 22:13:37 10° NE
Cosmos 1908 Rocket 3.5 22:06:31 10° N 22:10:53 77° E 22:13:01 29° SSE
Cosmos 2219 Rocket 3.2 22:11:41 23° SE 22:13:38 28° ESE 22:18:20 10° NE
Cosmos 1655 Rocket 4.0 22:07:22 10° N 22:13:39 73° E 22:17:31 24° SSE
Meteor 2-10 3.9 22:08:53 10° NNW 22:14:10 90° ESE 22:17:05 26° S
ISS -1.2 22:14:10 10° SW 22:14:24 10° SW 22:14:24 10° SW
Cosmos 1862 Rocket 4.1 22:10:46 14° SSW 22:14:27 57° WNW 22:18:54 10° N
SAR-Lupe-4 3.5 22:10:57 10° NNE 22:14:34 86° WNW 22:16:24 27° SSW
NOSS 2-1 (D) 4.0 22:12:05 10° WSW 22:15:09 43° NW 22:18:21 10° NNE
ADEOS Rocket 4.3 22:12:46 12° ESE 22:17:06 29° ENE 22:22:16 10° N
USA 215 4.0 22:12:43 10° ENE 22:18:19 29° SE 22:20:40 24° SSE
ERS-2 4.2 22:16:33 10° ENE 22:18:25 14° E 22:18:39 13° E
Cosmos 1766 3.2 22:15:52 10° N 22:19:49 76° ENE 22:21:25 34° SSE
Cosmos 1844 3.7 22:14:42 10° NNW 22:20:33 82° WSW 22:23:54 26° SSE
Cosmos 990 Rocket 4.1 22:17:24 13° SSW 22:22:08 80° WNW 22:27:24 10° NNE
Iridium 4 Rocket 3.4 22:19:50 10° N 22:24:29 69° E 22:27:00 29° SSE
CZ-4C R/B 3.2 22:18:28 10° NW 22:25:24 66° NE 22:32:37 14° ESE
Cosmos 1726 2.0 22:22:58 10° N 22:26:40 81° E 22:27:54 40° SSE
ALOS 2 3.7 22:26:16 21° ESE 22:28:28 34° ENE 22:32:26 10° N
Cosmos 2112 Rocket 4.0 22:23:44 10° NNW 22:29:05 79° WSW 22:31:51 29° SSE
Cosmos 1680 Rocket 3.6 22:24:10 10° NNW 22:29:27 68° WSW 22:32:12 28° S
Cosmos 2242 Rocket 3.8 22:27:40 32° SSE 22:29:38 58° E 22:34:06 10° NNE
Cosmos 1707 4.1 22:31:47 23° ESE 22:32:33 24° E 22:35:44 10° NE
SL-16 R/B 3.0 22:27:24 10° SW 22:32:55 53° NW 22:38:30 10° NNE
ATLAS CENTAUR R/B 1.7 22:30:44 10° NW 22:35:36 70° SW 22:37:37 33° SSE
Cosmos 2266 Rocket 4.0 22:29:25 10° NNW 22:35:41 79° W 22:39:21 26° S
Iridium 51 4.3 22:37:07 33° SSW 22:38:26 60° W 22:42:03 10° N
Cosmos 1461 3.1 22:35:07 10° NW 22:39:14 64° NE 22:41:19 28° ESE
Okean 3 3.4 22:38:43 35° S 22:40:27 81° E 22:44:44 10° NNE
Cosmos 858 Rocket 4.5 22:38:13 27° S 22:41:04 70° ESE 22:46:21 10° NNE
Cosmos 1898 Rocket 3.6 22:38:09 18° SSW 22:42:06 81° WNW 22:47:27 10° NNE
Okean 1-7 3.1 22:41:19 29° SSW 22:43:32 74° W 22:47:55 10° N
H-2A R/B 4.1 22:39:44 10° NNE 22:43:36 38° E 22:44:36 33° SE
Cosmos 2237 Rocket 4.1 22:45:22 13° ESE 22:46:46 14° E 22:49:43 10° ENE
Cosmos 1818 3.9 22:42:25 10° NW 22:47:42 52° WSW 22:50:03 31° S
Cosmos 1626 4.0 22:48:06 17° E 22:48:36 18° E 22:51:07 10° NE
Cosmos 1238 Rocket 4.3 22:47:32 10° NNE 22:49:35 17° ENE 22:50:13 16° E
Cosmos 2360 Rocket 2.4 22:49:58 14° SW 22:54:55 70° WNW 23:00:36 10° NNE
SL-08 ROCKET BODY 4.5 22:49:07 10° N 22:54:59 65° ENE 22:57:59 29° SSE
COSMOS 2428 3.2 22:52:54 30° SSE 22:55:00 42° ESE 23:00:19 10° NE
ATLAS 2AS CENTAUR R/B 4.3 22:48:02 10° W 22:55:14 40° NNW 23:02:10 10° NE
USA 267 3.6 22:48:51 10° ESE 22:55:20 67° NNE 23:01:50 10° WNW
USA 229 DEB 4.2 22:48:08 10° NW 22:55:22 66° NE 23:02:20 13° ESE
USA 229 4.2 22:48:14 10° NW 22:55:27 66° NE 23:02:27 13° ESE
Cosmos 1470 2.7 22:51:46 10° N 22:55:39 77° E 22:56:42 46° SSE
Sich 1 Rocket 4.1 22:54:24 10° N 22:58:42 49° ENE 23:00:22 32° SE
NOSS 2-2 (E) 4.4 22:55:42 10° NW 23:00:33 69° NE 23:05:38 18° SE
USA 290 3.4 23:04:54 30° E 23:04:54 30° E 23:07:28 10° NE
Cosmos 2333 4.1 23:01:59 24° SSW 23:05:31 90° ESE 23:11:13 10° NNE
Okean 2 4.1 23:07:32 34° SE 23:08:29 40° E 23:12:19 10° NNE
Cosmos 1674 3.5 23:10:30 34° ESE 23:11:05 36° E 23:14:35 10° NNE
Cosmos 372 Rocket 3.9 23:08:30 28° SSW 23:11:17 84° WNW 23:16:30 10° NNE
Cosmos 1437 Rocket 4.4 23:08:14 10° NNE 23:11:23 24° ENE 23:12:47 20° ESE
ATLAS 3B R/B 4.3 23:06:52 10° WNW 23:12:25 23° WSW 23:16:07 16° SW
Cosmos 494 Rocket 4.3 23:08:50 10° NNW 23:13:54 58° ENE 23:16:34 27° SE
Cosmos 1842 3.6 23:13:53 36° SW 23:15:13 58° WNW 23:19:04 10° N
Cosmos 2278 Rocket 2.7 23:10:13 10° NNW 23:15:49 54° NE 23:19:33 21° SE
USA 305 3.9 23:16:56 28° ESE 23:16:56 28° ESE 23:19:49 10° ENE
Terra 4.3 23:16:14 10° WSW 23:17:34 11° W 23:18:55 10° WNW
Cosmos 1048 Rocket 4.1 23:15:58 10° NNW 23:21:09 72° ENE 23:23:34 31° SE
NOSS 3-1 (A) 4.0 23:14:41 10° NW 23:22:03 83° SW 23:28:09 22° SE
Meteor 1-21 4.3 23:19:31 33° S 23:22:14 72° E 23:28:01 10° NNE
Gblst 52 Del rocket 4.3 23:15:47 10° WSW 23:22:14 86° NNW 23:27:58 10° ENE
NOSS 3-1 (C) 4.3 23:20:47 10° NW 23:28:02 55° WSW 23:32:39 28° S
Cosmos 1953 3.4 23:27:31 10° N 23:31:15 35° ENE 23:32:39 27° ESE
Cosmos 1125 Rocket 4.2 23:30:32 31° SE 23:32:08 39° ESE 23:36:57 10° NE
Cosmos 1378 Rocket 4.2 23:31:55 34° SE 23:33:12 43° E 23:37:25 10° NNE
Cosmos 1844 Rocket 4.3 23:29:39 10° NW 23:33:38 20° W 23:35:47 16° SW
NOSS 0 Rocket 4.4 23:32:10 31° SSE 23:34:39 46° ESE 23:40:34 10° NE
Cosmos 2221 Rocket 3.6 23:34:35 43° SSE 23:35:54 69° E 23:40:18 10° NNE
Cosmos 1553 Rocket 4.0 23:33:23 32° S 23:36:21 72° E 23:42:34 10° NNE
Cosmos 2322 Rocket 4.0 23:31:39 10° WSW 23:36:26 28° NW 23:41:16 10° NNE
SL-16 R/B 4.3 23:34:37 10° ESE 23:36:38 12° E 23:38:40 10° ENE
NOSS 2-2 (D) 4.2 23:32:11 10° NW 23:37:05 89° SW 23:41:27 22° SE
Cosmos 1980 4.5 23:37:01 29° SE 23:38:53 37° ESE 23:44:03 10° NE
Cosmos 2322 3.9 23:40:24 23° SW 23:44:01 70° WNW 23:49:47 10° NNE
Cosmos 2333 Rocket 2.9 23:42:12 16° SW 23:46:40 52° NW 23:52:14 10° NNE
Cosmos 1758 3.5 23:44:03 10° NNW 23:47:59 58° W 23:48:53 45° SSW
Cosmos 371 Rocket 3.7 23:47:03 36° SSE 23:48:30 47° ESE 23:53:10 10° NNE
ERS-2 2.6 23:48:34 10° N 23:52:06 53° WNW 23:53:03 39° WSW
Cosmos 1242 Rocket 3.1 23:49:34 10° NNW 23:53:00 42° W 23:53:26 40° WSW
